Year,Month,Day,Hour,Minute,Value (Times are PST for temperature in C)
2014,08,10,00,00,18.40
2014,08,10,00,01,18.30
2014,08,10,00,02,18.30
2014,08,10,00,03,18.30
2014,08,10,00,04,18.30
2014,08,10,00,05,18.30
2014,08,10,00,06,18.20
2014,08,10,00,07,18.20
2014,08,10,00,08,18.20
2014,08,10,00,09,18.20
2014,08,10,00,10,18.20
2014,08,10,00,11,18.20
2014,08,10,00,12,18.20
2014,08,10,00,13,18.10
2014,08,10,00,14,18.10
2014,08,10,00,15,18.10
2014,08,10,00,17,18.10
2014,08,10,00,18,18.10
2014,08,10,00,19,18.10
2014,08,10,00,20,18.10
2014,08,10,00,21,18.10
2014,08,10,00,22,18.00
2014,08,10,00,23,18.00
2014,08,10,00,24,18.00
2014,08,10,00,25,18.00
2014,08,10,00,26,17.90
2014,08,10,00,27,17.90
2014,08,10,00,28,17.90
2014,08,10,00,29,17.90
2014,08,10,00,30,17.90
2014,08,10,00,31,17.90
2014,08,10,00,32,17.90
2014,08,10,00,33,17.80
2014,08,10,00,34,17.80
2014,08,10,00,35,17.80
2014,08,10,00,36,17.80
2014,08,10,00,37,17.80
2014,08,10,00,38,17.80
2014,08,10,00,39,17.80
2014,08,10,00,40,17.80
2014,08,10,00,41,17.80
2014,08,10,00,42,17.80
2014,08,10,00,43,17.70
2014,08,10,00,44,17.70
2014,08,10,00,45,17.70
2014,08,10,00,46,17.70
2014,08,10,00,47,17.70
2014,08,10,00,48,17.70
2014,08,10,00,49,17.70
2014,08,10,00,50,17.70
2014,08,10,00,51,17.60
2014,08,10,00,52,17.60
2014,08,10,00,53,17.60
2014,08,10,00,54,17.60
2014,08,10,00,55,17.60
2014,08,10,00,57,17.50
2014,08,10,00,58,17.50
2014,08,10,00,59,17.50
2014,08,10,01,00,17.40
2014,08,10,01,01,17.40
2014,08,10,01,02,17.40
2014,08,10,01,03,17.40
2014,08,10,01,04,17.40
2014,08,10,01,05,17.40
2014,08,10,01,06,17.40
2014,08,10,01,07,17.40
2014,08,10,01,08,17.40
2014,08,10,01,09,17.30
2014,08,10,01,10,17.30
2014,08,10,01,11,17.30
2014,08,10,01,12,17.30
2014,08,10,01,13,17.30
2014,08,10,01,14,17.30
2014,08,10,01,15,17.30
2014,08,10,01,16,17.20
2014,08,10,01,17,17.20
2014,08,10,01,18,17.20
2014,08,10,01,19,17.20
2014,08,10,01,20,17.20
2014,08,10,01,21,17.10
2014,08,10,01,22,17.10
2014,08,10,01,23,17.10
2014,08,10,01,24,17.00
2014,08,10,01,25,17.00
2014,08,10,01,26,16.90
2014,08,10,01,27,16.90
2014,08,10,01,28,16.90
2014,08,10,01,29,16.90
2014,08,10,01,30,16.90
2014,08,10,01,31,16.90
2014,08,10,01,32,16.80
2014,08,10,01,33,16.80
2014,08,10,01,34,16.80
2014,08,10,01,35,16.80
2014,08,10,01,36,16.80
2014,08,10,01,37,16.80
2014,08,10,01,38,16.70
2014,08,10,01,39,16.70
2014,08,10,01,40,16.70
2014,08,10,01,41,16.70
2014,08,10,01,42,16.70
2014,08,10,01,43,16.70
2014,08,10,01,44,16.60
2014,08,10,01,45,16.60
2014,08,10,01,46,16.60
2014,08,10,01,47,16.60
2014,08,10,01,48,16.60
2014,08,10,01,49,16.60
2014,08,10,01,50,16.60
2014,08,10,01,51,16.60
2014,08,10,01,52,16.60
2014,08,10,01,53,16.60
2014,08,10,01,54,16.50
2014,08,10,01,55,16.50
2014,08,10,01,56,16.50
2014,08,10,01,57,16.40
2014,08,10,01,58,16.40
2014,08,10,01,59,16.40
2014,08,10,02,00,16.40
2014,08,10,02,01,16.40
2014,08,10,02,02,16.40
2014,08,10,02,03,16.40
2014,08,10,02,04,16.30
2014,08,10,02,05,16.30
2014,08,10,02,06,16.30
2014,08,10,02,07,16.30
2014,08,10,02,08,16.30
2014,08,10,02,09,16.30
2014,08,10,02,10,16.20
2014,08,10,02,11,16.20
2014,08,10,02,12,16.20
2014,08,10,02,13,16.20
2014,08,10,02,14,16.20
2014,08,10,02,15,16.10
2014,08,10,02,16,16.10
2014,08,10,02,17,16.10
2014,08,10,02,18,16.10
2014,08,10,02,19,16.10
2014,08,10,02,20,16.10
2014,08,10,02,21,16.00
2014,08,10,02,22,16.00
2014,08,10,02,23,16.00
2014,08,10,02,24,16.00
2014,08,10,02,25,16.00
2014,08,10,02,26,15.90
2014,08,10,02,27,15.90
2014,08,10,02,28,15.90
2014,08,10,02,29,15.90
2014,08,10,02,30,15.90
2014,08,10,02,31,15.90
2014,08,10,02,32,15.80
2014,08,10,02,33,15.80
2014,08,10,02,34,15.80
2014,08,10,02,35,15.80
2014,08,10,02,36,15.80
2014,08,10,02,37,15.80
2014,08,10,02,38,15.80
2014,08,10,02,39,15.80
2014,08,10,02,40,15.70
2014,08,10,02,41,15.70
2014,08,10,02,42,15.70
2014,08,10,02,43,15.70
2014,08,10,02,44,15.70
2014,08,10,02,45,15.70
2014,08,10,02,46,15.70
2014,08,10,02,47,15.60
2014,08,10,02,48,15.60
2014,08,10,02,49,15.60
2014,08,10,02,50,15.60
2014,08,10,02,51,15.60
2014,08,10,02,52,15.60
2014,08,10,02,53,15.60
2014,08,10,02,54,15.60
2014,08,10,02,55,15.60
2014,08,10,02,56,15.60
2014,08,10,02,57,15.60
2014,08,10,02,58,15.60
2014,08,10,02,59,15.60
2014,08,10,03,00,15.60
2014,08,10,03,01,15.60
2014,08,10,03,02,15.60
2014,08,10,03,03,15.60
2014,08,10,03,04,15.60
2014,08,10,03,05,15.60
2014,08,10,03,06,15.60
2014,08,10,03,07,15.60
2014,08,10,03,08,15.60
2014,08,10,03,09,15.60
2014,08,10,03,10,15.60
2014,08,10,03,11,15.50
2014,08,10,03,12,15.50
2014,08,10,03,13,15.50
2014,08,10,03,14,15.50
2014,08,10,03,15,15.50
2014,08,10,03,16,15.50
2014,08,10,03,17,15.50
2014,08,10,03,18,15.50
2014,08,10,03,19,15.40
2014,08,10,03,20,15.40
2014,08,10,03,21,15.40
2014,08,10,03,22,15.40
2014,08,10,03,23,15.40
2014,08,10,03,24,15.40
2014,08,10,03,25,15.40
2014,08,10,03,26,15.40
2014,08,10,03,27,15.30
2014,08,10,03,28,15.30
2014,08,10,03,29,15.30
2014,08,10,03,30,15.30
2014,08,10,03,31,15.30
2014,08,10,03,32,15.30
2014,08,10,03,33,15.30
2014,08,10,03,34,15.30
2014,08,10,03,35,15.30
2014,08,10,03,36,15.30
2014,08,10,03,37,15.20
2014,08,10,03,38,15.20
2014,08,10,03,39,15.20
2014,08,10,03,40,15.20
2014,08,10,03,41,15.20
2014,08,10,03,42,15.20
2014,08,10,03,43,15.20
2014,08,10,03,44,15.20
2014,08,10,03,45,15.10
2014,08,10,03,46,15.10
2014,08,10,03,47,15.10
2014,08,10,03,48,15.10
2014,08,10,03,49,15.10
2014,08,10,03,50,15.10
2014,08,10,03,51,15.00
2014,08,10,03,52,15.00
2014,08,10,03,53,15.00
2014,08,10,03,54,14.90
2014,08,10,03,55,14.90
2014,08,10,03,56,14.90
2014,08,10,03,57,14.90
2014,08,10,03,58,14.90
2014,08,10,03,59,14.90
2014,08,10,04,00,14.90
2014,08,10,04,01,14.90
2014,08,10,04,02,14.90
2014,08,10,04,03,14.90
2014,08,10,04,04,14.80
2014,08,10,04,05,14.80
2014,08,10,04,06,14.80
2014,08,10,04,07,14.80
2014,08,10,04,08,14.80
2014,08,10,04,09,14.80
2014,08,10,04,10,14.80
2014,08,10,04,11,14.80
2014,08,10,04,12,14.80
2014,08,10,04,13,14.80
2014,08,10,04,14,14.80
2014,08,10,04,15,14.80
2014,08,10,04,16,14.80
2014,08,10,04,17,14.80
2014,08,10,04,18,14.80
2014,08,10,04,19,14.80
2014,08,10,04,20,14.80
2014,08,10,04,21,14.80
2014,08,10,04,22,14.80
2014,08,10,04,23,14.80
2014,08,10,04,24,14.80
2014,08,10,04,25,14.80
2014,08,10,04,26,14.80
2014,08,10,04,27,14.70
2014,08,10,04,28,14.70
2014,08,10,04,29,14.70
2014,08,10,04,30,14.70
2014,08,10,04,31,14.70
2014,08,10,04,32,14.70
2014,08,10,04,33,14.70
2014,08,10,04,34,14.70
2014,08,10,04,35,14.70
2014,08,10,04,36,14.60
2014,08,10,04,37,14.60
2014,08,10,04,38,14.60
2014,08,10,04,39,14.60
2014,08,10,04,40,14.60
2014,08,10,04,41,14.60
2014,08,10,04,42,14.60
2014,08,10,04,43,14.60
2014,08,10,04,44,14.50
2014,08,10,04,45,14.50
2014,08,10,04,46,14.50
2014,08,10,04,47,14.50
2014,08,10,04,48,14.40
2014,08,10,04,49,14.40
2014,08,10,04,50,14.40
2014,08,10,04,51,14.40
2014,08,10,04,52,14.40
2014,08,10,04,53,14.40
2014,08,10,04,54,14.40
2014,08,10,04,55,14.40
2014,08,10,04,56,14.30
2014,08,10,04,57,14.30
2014,08,10,04,58,14.30
2014,08,10,04,59,14.30
2014,08,10,05,00,14.30
2014,08,10,05,01,14.30
2014,08,10,05,02,14.30
2014,08,10,05,03,14.30
2014,08,10,05,04,14.30
2014,08,10,05,06,14.30
2014,08,10,05,07,14.30
2014,08,10,05,08,14.30
2014,08,10,05,09,14.20
2014,08,10,05,10,14.20
2014,08,10,05,11,14.20
2014,08,10,05,12,14.20
2014,08,10,05,13,14.20
2014,08,10,05,14,14.20
2014,08,10,05,15,14.10
2014,08,10,05,16,14.10
2014,08,10,05,17,14.10
2014,08,10,05,18,14.10
2014,08,10,05,19,14.10
2014,08,10,05,20,14.10
2014,08,10,05,21,14.00
2014,08,10,05,22,14.00
2014,08,10,05,23,13.90
2014,08,10,05,24,13.90
2014,08,10,05,25,13.90
2014,08,10,05,26,13.90
2014,08,10,05,27,13.90
2014,08,10,05,28,13.90
2014,08,10,05,29,13.90
2014,08,10,05,30,13.80
2014,08,10,05,31,13.80
2014,08,10,05,32,13.80
2014,08,10,05,33,13.80
2014,08,10,05,34,13.80
2014,08,10,05,35,13.80
2014,08,10,05,36,13.80
2014,08,10,05,37,13.70
2014,08,10,05,38,13.70
2014,08,10,05,39,13.70
2014,08,10,05,40,13.70
2014,08,10,05,41,13.70
2014,08,10,05,42,13.70
2014,08,10,05,43,13.70
2014,08,10,05,44,13.70
2014,08,10,05,45,13.60
2014,08,10,05,46,13.60
2014,08,10,05,47,13.60
2014,08,10,05,48,13.60
2014,08,10,05,49,13.60
2014,08,10,05,50,13.60
2014,08,10,05,51,13.60
2014,08,10,05,52,13.60
2014,08,10,05,53,13.60
2014,08,10,05,54,13.60
2014,08,10,05,55,13.60
2014,08,10,05,56,13.60
2014,08,10,05,57,13.60
2014,08,10,05,58,13.60
2014,08,10,05,59,13.60
2014,08,10,06,00,13.60
2014,08,10,06,01,13.60
2014,08,10,06,02,13.60
2014,08,10,06,03,13.50
2014,08,10,06,04,13.50
2014,08,10,06,05,13.50
2014,08,10,06,06,13.50
2014,08,10,06,07,13.50
2014,08,10,06,08,13.40
2014,08,10,06,09,13.40
2014,08,10,06,10,13.40
2014,08,10,06,11,13.40
2014,08,10,06,12,13.40
2014,08,10,06,13,13.40
2014,08,10,06,14,13.40
2014,08,10,06,15,13.40
2014,08,10,06,16,13.40
2014,08,10,06,17,13.30
2014,08,10,06,18,13.30
2014,08,10,06,19,13.30
2014,08,10,06,20,13.30
2014,08,10,06,21,13.30
2014,08,10,06,22,13.30
2014,08,10,06,23,13.30
2014,08,10,06,24,13.30
2014,08,10,06,25,13.30
2014,08,10,06,26,13.30
2014,08,10,06,27,13.30
2014,08,10,06,28,13.30
2014,08,10,06,29,13.30
2014,08,10,06,30,13.30
2014,08,10,06,31,13.30
2014,08,10,06,32,13.30
2014,08,10,06,33,13.30
2014,08,10,06,34,13.30
2014,08,10,06,35,13.30
2014,08,10,06,36,13.30
2014,08,10,06,37,13.30
2014,08,10,06,38,13.30
2014,08,10,06,39,13.30
2014,08,10,06,40,13.30
2014,08,10,06,41,13.30
2014,08,10,06,42,13.30
2014,08,10,06,43,13.30
2014,08,10,06,44,13.30
2014,08,10,06,45,13.30
2014,08,10,06,46,13.30
2014,08,10,06,47,13.30
2014,08,10,06,48,13.40
2014,08,10,06,49,13.40
2014,08,10,06,50,13.40
2014,08,10,06,51,13.40
2014,08,10,06,52,13.40
2014,08,10,06,53,13.50
2014,08,10,06,54,13.50
2014,08,10,06,55,13.60
2014,08,10,06,56,13.60
2014,08,10,06,57,13.60
2014,08,10,06,58,13.60
2014,08,10,06,59,13.70
2014,08,10,07,00,13.70
2014,08,10,07,01,13.70
2014,08,10,07,02,13.70
2014,08,10,07,04,13.70
2014,08,10,07,05,13.70
2014,08,10,07,06,13.70
2014,08,10,07,07,13.80
2014,08,10,07,08,13.80
2014,08,10,07,09,13.80
2014,08,10,07,10,13.80
2014,08,10,07,11,13.80
2014,08,10,07,12,13.80
2014,08,10,07,13,13.90
2014,08,10,07,14,13.90
2014,08,10,07,15,13.90
2014,08,10,07,16,13.90
2014,08,10,07,17,14.00
2014,08,10,07,18,14.00
2014,08,10,07,19,14.10
2014,08,10,07,20,14.10
2014,08,10,07,21,14.10
2014,08,10,07,22,14.10
2014,08,10,07,23,14.20
2014,08,10,07,24,14.20
2014,08,10,07,25,14.20
2014,08,10,07,26,14.30
2014,08,10,07,27,14.30
2014,08,10,07,28,14.40
2014,08,10,07,29,14.40
2014,08,10,07,30,14.40
2014,08,10,07,31,14.50
2014,08,10,07,32,14.60
2014,08,10,07,33,14.60
2014,08,10,07,34,14.70
2014,08,10,07,35,14.70
2014,08,10,07,36,14.80
2014,08,10,07,37,14.80
2014,08,10,07,38,14.90
2014,08,10,07,39,14.90
2014,08,10,07,40,15.00
2014,08,10,07,41,15.10
2014,08,10,07,42,15.10
2014,08,10,07,43,15.20
2014,08,10,07,44,15.30
2014,08,10,07,45,15.30
2014,08,10,07,46,15.40
2014,08,10,07,47,15.50
2014,08,10,07,48,15.60
2014,08,10,07,49,15.60
2014,08,10,07,50,15.70
2014,08,10,07,51,15.70
2014,08,10,07,53,15.80
2014,08,10,07,54,15.90
2014,08,10,07,55,15.90
2014,08,10,07,56,16.00
2014,08,10,07,57,16.10
2014,08,10,07,58,16.10
2014,08,10,07,59,16.20
2014,08,10,08,00,16.20
2014,08,10,08,01,16.30
2014,08,10,08,02,16.40
2014,08,10,08,03,16.40
2014,08,10,08,04,16.60
2014,08,10,08,05,16.60
2014,08,10,08,06,16.70
2014,08,10,08,07,16.70
2014,08,10,08,08,16.80
2014,08,10,08,09,16.80
2014,08,10,08,10,16.90
2014,08,10,08,11,16.90
2014,08,10,08,12,17.00
2014,08,10,08,13,17.10
2014,08,10,08,14,17.20
2014,08,10,08,15,17.30
2014,08,10,08,16,17.40
2014,08,10,08,17,17.40
2014,08,10,08,18,17.60
2014,08,10,08,19,17.60
2014,08,10,08,20,17.70
2014,08,10,08,21,17.80
2014,08,10,08,22,17.80
2014,08,10,08,23,17.90
2014,08,10,08,24,17.90
2014,08,10,08,25,17.90
2014,08,10,08,26,17.90
2014,08,10,08,27,17.90
2014,08,10,08,28,17.90
2014,08,10,08,29,17.90
2014,08,10,08,30,17.90
2014,08,10,08,31,18.00
2014,08,10,08,32,18.10
2014,08,10,08,33,18.10
2014,08,10,08,34,18.20
2014,08,10,08,35,18.30
2014,08,10,08,37,18.40
2014,08,10,08,38,18.60
2014,08,10,08,39,18.60
2014,08,10,08,40,18.70
2014,08,10,08,41,18.70
2014,08,10,08,42,18.70
2014,08,10,08,43,18.70
2014,08,10,08,44,18.80
2014,08,10,08,46,18.90
2014,08,10,08,47,19.00
2014,08,10,08,48,19.10
2014,08,10,08,49,19.20
2014,08,10,08,50,19.30
2014,08,10,08,51,19.40
2014,08,10,08,52,19.40
2014,08,10,08,53,19.50
2014,08,10,08,54,19.60
2014,08,10,08,55,19.70
2014,08,10,08,56,19.70
2014,08,10,08,57,19.70
2014,08,10,08,58,19.80
2014,08,10,08,59,19.80
2014,08,10,09,00,19.80
2014,08,10,09,01,19.80
2014,08,10,09,02,19.80
2014,08,10,09,03,19.80
2014,08,10,09,04,19.90
2014,08,10,09,05,20.00
2014,08,10,09,06,20.00
2014,08,10,09,07,20.10
2014,08,10,09,08,20.10
2014,08,10,09,09,20.10
2014,08,10,09,10,20.10
2014,08,10,09,11,20.10
2014,08,10,09,12,20.20
2014,08,10,09,13,20.20
2014,08,10,09,14,20.30
2014,08,10,09,15,20.30
2014,08,10,09,16,20.40
2014,08,10,09,17,20.40
2014,08,10,09,18,20.60
2014,08,10,09,19,20.60
2014,08,10,09,20,20.70
2014,08,10,09,21,20.70
2014,08,10,09,22,20.80
2014,08,10,09,23,20.80
2014,08,10,09,24,20.90
2014,08,10,09,25,20.90
2014,08,10,09,26,21.00
2014,08,10,09,27,21.10
2014,08,10,09,28,21.10
2014,08,10,09,29,21.10
2014,08,10,09,30,21.10
2014,08,10,09,31,21.10
2014,08,10,09,32,21.10
2014,08,10,09,33,21.00
2014,08,10,09,34,21.00
2014,08,10,09,35,20.90
2014,08,10,09,36,20.90
2014,08,10,09,37,20.90
2014,08,10,09,38,21.00
2014,08,10,09,39,21.10
2014,08,10,09,40,21.10
2014,08,10,09,41,21.10
2014,08,10,09,42,21.10
2014,08,10,09,43,21.20
2014,08,10,09,44,21.20
2014,08,10,09,45,21.30
2014,08,10,09,46,21.30
2014,08,10,09,47,21.40
2014,08,10,09,48,21.40
2014,08,10,09,49,21.40
2014,08,10,09,50,21.50
2014,08,10,09,51,21.60
2014,08,10,09,52,21.70
2014,08,10,09,53,21.70
2014,08,10,09,54,21.70
2014,08,10,09,55,21.80
2014,08,10,09,56,21.80
2014,08,10,09,57,21.90
2014,08,10,09,58,21.90
2014,08,10,09,59,22.00
2014,08,10,10,00,22.00
2014,08,10,10,01,22.10
2014,08,10,10,03,22.10
2014,08,10,10,04,22.20
2014,08,10,10,05,22.20
2014,08,10,10,06,22.30
2014,08,10,10,07,22.30
2014,08,10,10,08,22.40
2014,08,10,10,09,22.50
2014,08,10,10,10,22.60
2014,08,10,10,11,22.70
2014,08,10,10,12,22.70
2014,08,10,10,13,22.80
2014,08,10,10,14,22.80
2014,08,10,10,15,22.80
2014,08,10,10,16,22.70
2014,08,10,10,17,22.60
2014,08,10,10,19,22.50
2014,08,10,10,20,22.50
2014,08,10,10,21,22.50
2014,08,10,10,22,22.50
2014,08,10,10,23,22.50
2014,08,10,10,24,22.50
2014,08,10,10,25,22.50
2014,08,10,10,26,22.50
2014,08,10,10,27,22.50
2014,08,10,10,28,22.50
2014,08,10,10,29,22.50
2014,08,10,10,30,22.50
2014,08,10,10,31,22.50
2014,08,10,10,32,22.60
2014,08,10,10,33,22.60
2014,08,10,10,34,22.60
2014,08,10,10,35,22.70
2014,08,10,10,36,22.70
2014,08,10,10,37,22.80
2014,08,10,10,38,22.80
2014,08,10,10,39,22.90
2014,08,10,10,40,23.00
2014,08,10,10,41,23.10
2014,08,10,10,42,23.10
2014,08,10,10,43,23.20
2014,08,10,10,44,23.20
2014,08,10,10,45,23.30
2014,08,10,10,46,23.30
2014,08,10,10,47,23.40
2014,08,10,10,48,23.50
2014,08,10,10,49,23.60
2014,08,10,10,50,23.70
2014,08,10,10,52,23.90
2014,08,10,10,53,24.10
2014,08,10,10,54,24.20
2014,08,10,10,55,24.30
2014,08,10,10,56,24.40
2014,08,10,10,57,24.40
2014,08,10,10,58,24.50
2014,08,10,10,59,24.60
2014,08,10,11,00,24.70
2014,08,10,11,01,24.70
2014,08,10,11,03,24.70
2014,08,10,11,04,24.80
2014,08,10,11,05,24.80
2014,08,10,11,06,24.90
2014,08,10,11,07,25.10
2014,08,10,11,08,25.10
2014,08,10,11,09,25.20
2014,08,10,11,10,25.30
2014,08,10,11,11,25.40
2014,08,10,11,12,25.60
2014,08,10,11,13,25.70
2014,08,10,11,14,25.80
2014,08,10,11,15,25.90
2014,08,10,11,16,26.00
2014,08,10,11,17,26.10
2014,08,10,11,18,26.20
2014,08,10,11,19,26.30
2014,08,10,11,20,26.40
2014,08,10,11,21,26.50
2014,08,10,11,22,26.60
2014,08,10,11,23,26.70
2014,08,10,11,24,26.80
2014,08,10,11,25,26.80
2014,08,10,11,26,26.90
2014,08,10,11,27,26.90
2014,08,10,11,28,27.00
2014,08,10,11,29,27.00
2014,08,10,11,30,27.10
2014,08,10,11,31,27.10
2014,08,10,11,32,27.10
2014,08,10,11,33,27.10
2014,08,10,11,34,27.10
2014,08,10,11,35,27.10
2014,08,10,11,36,27.10
2014,08,10,11,37,27.20
2014,08,10,11,38,27.20
2014,08,10,11,39,27.30
2014,08,10,11,40,27.40
2014,08,10,11,41,27.40
2014,08,10,11,42,27.60
2014,08,10,11,43,27.60
2014,08,10,11,44,27.70
2014,08,10,11,45,27.70
2014,08,10,11,46,27.70
2014,08,10,11,47,27.80
2014,08,10,11,48,27.80
2014,08,10,11,49,27.80
2014,08,10,11,50,27.90
2014,08,10,11,51,27.90
2014,08,10,11,52,28.10
2014,08,10,11,53,28.20
2014,08,10,11,54,28.20
2014,08,10,11,55,28.30
2014,08,10,11,56,28.40
2014,08,10,11,57,28.50
2014,08,10,11,58,28.60
2014,08,10,11,59,28.70
2014,08,10,12,00,28.80
2014,08,10,12,01,28.80
2014,08,10,12,02,28.80
2014,08,10,12,03,28.80
2014,08,10,12,04,28.90
2014,08,10,12,05,28.90
2014,08,10,12,06,29.00
2014,08,10,12,07,29.10
2014,08,10,12,08,29.10
2014,08,10,12,09,29.10
2014,08,10,12,10,29.10
2014,08,10,12,11,29.20
2014,08,10,12,12,29.20
2014,08,10,12,13,29.20
2014,08,10,12,14,29.20
2014,08,10,12,15,29.30
2014,08,10,12,16,29.20
2014,08,10,12,17,29.20
2014,08,10,12,18,29.20
2014,08,10,12,19,29.20
2014,08,10,12,20,29.20
2014,08,10,12,21,29.20
2014,08,10,12,22,29.30
2014,08,10,12,23,29.30
2014,08,10,12,24,29.30
2014,08,10,12,25,29.30
2014,08,10,12,26,29.30
2014,08,10,12,27,29.30
2014,08,10,12,28,29.30
2014,08,10,12,29,29.40
2014,08,10,12,30,29.40
2014,08,10,12,31,29.50
2014,08,10,12,32,29.60
2014,08,10,12,33,29.60
2014,08,10,12,34,29.60
2014,08,10,12,35,29.60
2014,08,10,12,36,29.60
2014,08,10,12,37,29.60
2014,08,10,12,38,29.50
2014,08,10,12,39,29.40
2014,08,10,12,40,29.40
2014,08,10,12,41,29.40
2014,08,10,12,42,29.50
2014,08,10,12,43,29.60
2014,08,10,12,44,29.60
2014,08,10,12,45,29.60
2014,08,10,12,46,29.70
2014,08,10,12,47,29.60
2014,08,10,12,48,29.60
2014,08,10,12,49,29.60
2014,08,10,12,50,29.60
2014,08,10,12,51,29.60
2014,08,10,12,52,29.60
2014,08,10,12,53,29.60
2014,08,10,12,54,29.60
2014,08,10,12,55,29.60
2014,08,10,12,56,29.60
2014,08,10,12,57,29.70
2014,08,10,12,58,29.70
2014,08,10,12,59,29.80
2014,08,10,13,00,29.80
2014,08,10,13,01,29.90
2014,08,10,13,02,30.00
2014,08,10,13,03,30.10
2014,08,10,13,04,30.00
2014,08,10,13,05,30.00
2014,08,10,13,06,29.90
2014,08,10,13,07,29.90
2014,08,10,13,08,29.90
2014,08,10,13,09,29.90
2014,08,10,13,10,29.80
2014,08,10,13,11,29.80
2014,08,10,13,12,29.90
2014,08,10,13,13,30.00
2014,08,10,13,14,30.10
2014,08,10,13,15,30.20
2014,08,10,13,16,30.30
2014,08,10,13,17,30.40
2014,08,10,13,18,30.40
2014,08,10,13,19,30.40
2014,08,10,13,20,30.50
2014,08,10,13,21,30.60
2014,08,10,13,22,30.60
2014,08,10,13,23,30.60
2014,08,10,13,24,30.50
2014,08,10,13,25,30.40
2014,08,10,13,26,30.40
2014,08,10,13,27,30.40
2014,08,10,13,28,30.50
2014,08,10,13,29,30.60
2014,08,10,13,30,30.60
2014,08,10,13,31,30.70
2014,08,10,13,32,30.70
2014,08,10,13,33,30.70
2014,08,10,13,34,30.60
2014,08,10,13,35,30.60
2014,08,10,13,36,30.60
2014,08,10,13,37,30.70
2014,08,10,13,38,30.80
2014,08,10,13,39,30.80
2014,08,10,13,40,30.80
2014,08,10,13,41,30.90
2014,08,10,13,42,30.90
2014,08,10,13,43,30.80
2014,08,10,13,44,30.80
2014,08,10,13,45,30.80
2014,08,10,13,46,30.80
2014,08,10,13,47,30.80
2014,08,10,13,48,30.90
2014,08,10,13,49,31.00
2014,08,10,13,50,31.10
2014,08,10,13,51,31.10
2014,08,10,13,52,31.00
2014,08,10,13,53,31.00
2014,08,10,13,54,31.00
2014,08,10,13,55,31.00
2014,08,10,13,56,31.00
2014,08,10,13,57,31.00
2014,08,10,13,58,31.00
2014,08,10,13,59,31.10
2014,08,10,14,00,31.10
2014,08,10,14,01,31.10
2014,08,10,14,02,31.20
2014,08,10,14,03,31.20
2014,08,10,14,04,31.30
2014,08,10,14,05,31.20
2014,08,10,14,06,31.20
2014,08,10,14,07,31.20
2014,08,10,14,08,31.20
2014,08,10,14,09,31.30
2014,08,10,14,10,31.40
2014,08,10,14,11,31.40
2014,08,10,14,12,31.50
2014,08,10,14,13,31.40
2014,08,10,14,14,31.40
2014,08,10,14,15,31.40
2014,08,10,14,16,31.40
2014,08,10,14,17,31.50
2014,08,10,14,18,31.60
2014,08,10,14,19,31.60
2014,08,10,14,20,31.60
2014,08,10,14,21,31.70
2014,08,10,14,22,31.70
2014,08,10,14,23,31.80
2014,08,10,14,24,31.80
2014,08,10,14,25,31.80
2014,08,10,14,26,31.80
2014,08,10,14,27,31.80
2014,08,10,14,28,31.90
2014,08,10,14,29,32.00
2014,08,10,14,30,32.10
2014,08,10,14,31,32.10
2014,08,10,14,32,32.10
2014,08,10,14,33,32.10
2014,08,10,14,34,32.00
2014,08,10,14,35,32.00
2014,08,10,14,36,32.10
2014,08,10,14,37,32.20
2014,08,10,14,38,32.20
2014,08,10,14,39,32.20
2014,08,10,14,40,32.20
2014,08,10,14,41,32.30
2014,08,10,14,42,32.30
2014,08,10,14,43,32.30
2014,08,10,14,44,32.40
2014,08,10,14,45,32.40
2014,08,10,14,46,32.40
2014,08,10,14,47,32.40
2014,08,10,14,48,32.50
2014,08,10,14,49,32.60
2014,08,10,14,50,32.60
2014,08,10,14,51,32.70
2014,08,10,14,52,32.70
2014,08,10,14,53,32.70
2014,08,10,14,54,32.70
2014,08,10,14,55,32.70
2014,08,10,14,56,32.70
2014,08,10,14,57,32.70
2014,08,10,14,58,32.70
2014,08,10,14,59,32.80
2014,08,10,15,00,32.80
2014,08,10,15,01,32.80
2014,08,10,15,02,32.90
2014,08,10,15,03,32.90
2014,08,10,15,04,32.90
2014,08,10,15,05,32.90
2014,08,10,15,06,32.90
2014,08,10,15,07,32.90
2014,08,10,15,08,32.90
2014,08,10,15,10,32.80
2014,08,10,15,11,32.90
2014,08,10,15,12,32.90
2014,08,10,15,13,33.00
2014,08,10,15,17,33.20
2014,08,10,15,18,33.20
2014,08,10,15,19,33.20
2014,08,10,15,20,33.20
2014,08,10,15,21,33.10
2014,08,10,15,22,33.10
2014,08,10,15,23,33.10
2014,08,10,15,24,33.00
2014,08,10,15,25,33.00
2014,08,10,15,26,33.00
2014,08,10,15,27,33.00
2014,08,10,15,28,33.00
2014,08,10,15,29,33.10
2014,08,10,15,30,33.10
2014,08,10,15,31,33.10
2014,08,10,15,32,33.10
2014,08,10,15,33,33.20
2014,08,10,15,34,33.20
2014,08,10,15,35,33.20
2014,08,10,15,36,33.20
2014,08,10,15,37,33.20
2014,08,10,15,38,33.20
2014,08,10,15,39,33.20
2014,08,10,15,40,33.30
2014,08,10,15,41,33.30
2014,08,10,15,42,33.40
2014,08,10,15,43,33.50
2014,08,10,15,44,33.60
2014,08,10,15,45,33.70
2014,08,10,15,46,33.70
2014,08,10,15,47,33.70
2014,08,10,15,48,33.80
2014,08,10,15,49,33.80
2014,08,10,15,50,33.80
2014,08,10,15,51,33.80
2014,08,10,15,52,33.80
2014,08,10,15,53,33.70
2014,08,10,15,54,33.70
2014,08,10,15,55,33.60
2014,08,10,15,56,33.60
2014,08,10,15,57,33.60
2014,08,10,15,58,33.60
2014,08,10,15,59,33.60
2014,08,10,16,00,33.60
2014,08,10,16,01,33.60
2014,08,10,16,02,33.60
2014,08,10,16,03,33.60
2014,08,10,16,04,33.60
2014,08,10,16,05,33.70
2014,08,10,16,06,33.70
2014,08,10,16,07,33.70
2014,08,10,16,08,33.80
2014,08,10,16,09,33.80
2014,08,10,16,10,33.80
2014,08,10,16,11,33.90
2014,08,10,16,12,33.90
2014,08,10,16,13,34.00
2014,08,10,16,14,34.00
2014,08,10,16,15,34.10
2014,08,10,16,16,34.10
2014,08,10,16,17,34.10
2014,08,10,16,18,34.10
2014,08,10,16,19,34.20
2014,08,10,16,20,34.10
2014,08,10,16,21,34.10
2014,08,10,16,22,34.10
2014,08,10,16,23,34.10
2014,08,10,16,24,34.10
2014,08,10,16,25,34.00
2014,08,10,16,26,34.00
2014,08,10,16,27,33.90
2014,08,10,16,28,33.90
2014,08,10,16,29,33.90
2014,08,10,16,30,33.90
2014,08,10,16,31,34.00
2014,08,10,16,32,33.90
2014,08,10,16,33,33.90
2014,08,10,16,34,34.00
2014,08,10,16,35,34.10
2014,08,10,16,36,34.10
2014,08,10,16,37,34.10
2014,08,10,16,38,34.20
2014,08,10,16,39,34.20
2014,08,10,16,40,34.20
2014,08,10,16,41,34.20
2014,08,10,16,42,34.20
2014,08,10,16,43,34.20
2014,08,10,16,44,34.20
2014,08,10,16,45,34.30
2014,08,10,16,46,34.30
2014,08,10,16,47,34.30
2014,08,10,16,48,34.40
2014,08,10,16,49,34.40
2014,08,10,16,50,34.40
2014,08,10,16,51,34.40
2014,08,10,16,52,34.40
2014,08,10,16,53,34.30
2014,08,10,16,54,34.30
2014,08,10,16,55,34.30
2014,08,10,16,56,34.30
2014,08,10,16,57,34.30
2014,08,10,16,58,34.20
2014,08,10,16,59,34.20
2014,08,10,17,00,34.20
2014,08,10,17,01,34.20
2014,08,10,17,02,34.20
2014,08,10,17,03,34.20
2014,08,10,17,04,34.20
2014,08,10,17,05,34.20
2014,08,10,17,06,34.20
2014,08,10,17,07,34.10
2014,08,10,17,08,34.10
2014,08,10,17,09,34.10
2014,08,10,17,10,34.00
2014,08,10,17,11,34.00
2014,08,10,17,12,34.00
2014,08,10,17,13,34.00
2014,08,10,17,14,34.00
2014,08,10,17,15,34.00
2014,08,10,17,16,34.00
2014,08,10,17,17,34.00
2014,08,10,17,18,34.00
2014,08,10,17,19,34.00
2014,08,10,17,20,34.00
2014,08,10,17,21,33.90
2014,08,10,17,22,33.90
2014,08,10,17,23,33.90
2014,08,10,17,24,33.90
2014,08,10,17,25,33.80
2014,08,10,17,26,33.80
2014,08,10,17,27,33.80
2014,08,10,17,28,33.80
2014,08,10,17,29,33.70
2014,08,10,17,30,33.70
2014,08,10,17,31,33.70
2014,08,10,17,32,33.70
2014,08,10,17,33,33.70
2014,08,10,17,34,33.60